Regional Weather Roundup
Issued by NWS

Home | Current Version | Previous Version | Graphics & Text | Print | Product List | Glossary On
Versions: 1 2 3 4 5 6 7 8 9 10 11 12 13 14 15 16 17 18 19 20 21 22 23 24 25 26 27 28 29 30 31 32 33 34 35 36 37 38 39 40 41 42 43 44 45 46 47 48 49 50
304
ASUS43 KLOT 011408
RWRIL

ILLINOIS REGIONAL WEATHER ROUNDUP
NATIONAL WEATHER SERVICE CHICAGO/ROMEOVILLE IL
900 AM CDT SAT OCT 01 2016

NOTE: "FAIR" INDICATES FEW OR NO CLOUDS BELOW 12,000 FEET WITH NO
SIGNIFICANT WEATHER AND/OR OBSTRUCTIONS TO VISIBILITY.

* THESE STATIONS ARE NOT UNDER NWS QUALITY CONTROL. THEY ALSO MAY NOT
  REPORT WEATHER SUCH AS PRECIPITATION OR FOG.

ILZ001-002-007-009-015-016-024-011500-
NORTHWEST ILLINOIS

CITY           SKY/WX    TMP DP  RH WIND       PRES   REMARKS
MOLINE         CLOUDY    62  58  86 N5        30.05S
STERLING*      CLOUDY    62  60  93 N7        30.05S
SAVANNA*       CLOUDY    61  59  94 NE7       30.06S
$$

ILZ003-004-008-010-011-017-018-011500-
NORTH CENTRAL ILLINOIS

CITY           SKY/WX    TMP DP  RH WIND       PRES   REMARKS
ROCKFORD       CLOUDY    61  58  90 NE8       30.07R
FREEPORT*      PTSUNNY   60  58  92 NE5       30.07F
ROCHELLE*      CLOUDY    57  57 100 N3        30.06R FOG
DE KALB*       PTSUNNY   57  57  99 N6        30.04F FOG
$$

ILZ005-006-012>014-019>023-011500-
NORTHEAST ILLINOIS

CITY           SKY/WX    TMP DP  RH WIND       PRES   REMARKS
CHICAGO-OHARE  LGT RAIN  61  58  90 N12       30.01S FOG
CHICAGO-MIDWAY HVY RAIN  59  56  89 E12       30.02R VSB 1
AURORA         PTSUNNY   58  56  93 NW7       30.03S
LANSING*       RAIN      58  58 100 NW7       30.01S
JOLIET*        CLOUDY    60  58  94 CALM      30.02S
WAUKEGAN       CLOUDY    61  59  93 NE5       30.02F
DUPAGE AIRPORT CLOUDY    59  55  87 N10       30.02S
KANKAKEE*      RAIN      59  58  97 CALM      30.02S
WHEELING       LGT RAIN  60  59  96 N5        30.03S FOG
MORRIS*        CLOUDY    58  57  97 CALM      30.01S FOG
ROMEOVILLE*    CLOUDY    58  58 100 CALM      30.02S
NORTHERLY ISL    N/A     60  58  92 NE14        N/A
$$

LMZ740>746-011500-
SOUTHERN LAKE MICHIGAN

STATION/POSITION SKY/WX   TEMP    WIND        PRES    VSBY  WAVE
                          AIR SEA DIR/SP/G                  HT/PER
                          (F)     (DEG/KT/KT) (MB)    (MI)  (FT/S)
SOUTHERN BUOY              60 67   70/ 17/ 21 1016.5S         3/ 6
WILMETTE HARBOR            62 60   90/ 16/ 19   N/A           3/ 6
HARRISON CRIB              61      40/ 23/ 26   N/A
BURNHAM HARBOR             60      50/ 12/ 15   N/A
CALUMET HARBOR             57      CALM  /  3 1015.9F
BURNS HARBOR               61      60/ 10/ 13 1016.6R
MICHIGAN CITY              60      40/  4/  5   N/A
MICHIGAN CITY 6N           60 64   40/ 12/ 16   N/A           4/ 5
ST. JOSEPH                 53 51   20/ 10/ 12 1016.7          3/ 6
$$

ILZ025>027-034>036-040-047-049-050-058-095>099-011500-
WEST-CENTRAL ILLINOIS

CITY           SKY/WX    TMP DP  RH WIND       PRES   REMARKS
QUINCY         CLOUDY    61  59  93 NW10      30.07S
GALESBURG*     LGT RAIN  59  59  98 CALM      30.05S
MACOMB*        LGT RAIN  60  59  98 NW6       30.08S
JACKSONVILLE*  CLOUDY    62  60  93 NW3       30.05R
PITTSFIELD*    CLOUDY    62  60  95 NW6       30.07S
$$

ILZ028>032-037-038-041>044-048-051>054-059>061-011500-
CENTRAL ILLINOIS

CITY           SKY/WX    TMP DP  RH WIND       PRES   REMARKS
PONTIAC        CLOUDY    58  58 100 CALM      30.04R FOG
BLOOMINGTON    PTSUNNY   59  56  89 CALM      30.04S
DECATUR        CLOUDY    62  58  86 CALM      30.03S
PEORIA         CLOUDY    62  61  96 NW3       30.03F
LACON*         CLOUDY    61  59  93 CALM      30.03S FOG
LINCOLN*       CLOUDY    61  59  93 NE5       30.04R
SPRINGFIELD    LGT RAIN  62  60  93 N5        30.04S FOG
TAYLORVILLE    CLOUDY    60  60  98 N5        30.03S FOG
$$

ILZ033-039-045-046-055>057-062-063-011500-
EAST-CENTRAL ILLINOIS

CITY           SKY/WX    TMP DP  RH WIND       PRES   REMARKS
CHAMPAIGN      CLOUDY    60  58  92 N5        30.02S FOG
RANTOUL*       CLOUDY    60  59  96 N3        30.02S FOG
MATTOON        CLOUDY    61  58  90 NW7       30.02R
PARIS*         FOG       57  57 100 CALM      30.02F VSB 1/2
$$

ILZ079-100>102-011500-
SOUTHWEST ILLINOIS

CITY           SKY/WX    TMP DP  RH WIND       PRES   REMARKS
ALTON          RAIN      61  61 100 NW9       30.05S
BELLEVILLE     CLOUDY    64  63  94 NW8       30.03S
CAHOKIA*       CLOUDY    64  59  83 NW10      30.05S
SPARTA*        CLOUDY    62  61  96 NW6       30.05S
$$

ILZ064>066-069>071-074>076-080>082-084>086-088>090-092>094-011500-
SOUTH-CENTRAL ILLINOIS

CITY           SKY/WX    TMP DP  RH WIND       PRES   REMARKS
CARBONDALE     CLOUDY    62  62 100 W7        30.04S
CAIRO*         CLOUDY    60  59  95 W6        30.07S
EFFINGHAM*     CLOUDY    61  61 100 W5        30.04S FOG
MARION         DRIZZLE   63  63 100 W9        30.04S
MT. VERNON     CLOUDY    63  55  77 CALM      30.04S
CENTRALIA*     CLOUDY    62  62  99 NW6       30.03S FOG
SALEM*         CLOUDY    63  61  93 CALM      30.03S FOG
METROPOLIS*    CLOUDY    62  60  95 SW5       30.07R FOG
$$

ILZ067-068-072-073-078-083-087-091-011500-
SOUTHEAST ILLINOIS

CITY           SKY/WX    TMP DP  RH WIND       PRES   REMARKS
LAWRENCEVILLE  CLOUDY    58  57  97 S3        30.03R FOG
FLORA*         CLOUDY    64  62  93 SW3       30.03R
FAIRFIELD*     CLOUDY    62  62  99 CALM      30.02S
HARRISBURG*    DRIZZLE   62  62 100 SW5       30.03S
ROBINSON*      CLOUDY    57  57  99 S3        30.04R
CARMI*         RAIN      60  60 100 CALM      30.02S
$$

ABBREVIATIONS USED IN REMARKS
   TC - TEMPERATURE IN CELSIUS
  WCI - WIND CHILL INDEX
   HX - HEAT INDEX
  VSB - VISIBILITY
$$





USA.gov is the U.S. government's official web portal to all federal, state and local government web resources and services.